HUBBLE 7 (64592 NORAD) Tracking and Keplerian Element Data

This shows tracking and keplerian element data for the satellite.

Feedback or suggestion? Click here.




ElementValue
Catalog64592
NameHUBBLE 7
Epoch Orbit2719
Epoch Day354.23156367
Epoch Year2025
RAAN106.0288
Inclination97.762
Eccentricity0.0004931
Argument of Perigee223.9485
Mean Anonmoly136.1343
Mean Motion14.93622876
Decay Rate1.275E-05
L11 64592U 25135BS 25354.23156367 .00001275 00000+0 12612-3 0 9993
L22 64592 97.7620 106.0288 0004931 223.9485 136.1343 14.93622876 27192



Live tracking and technical data element details for HUBBLE 7 (NORAD 64592). HUBBLE 7 can be tracked NOW for your location showing map with azimuth and elevation plus other details from your city location.







IsCatalogInMostPopularTable: catalog: 64592, numindb: 6
Update: records affected: 1



GetName: 64592 HUBBLE 7

Hit Count: updated at: Sat, 11 Apr 2026 21:17:23 GMT